This demonstration page uses our WeatherBlox Daily Observations layout. Learn more.

Left ArrowRight Arrow

39.51506, -84.39828

Hourly Observations for September 8, 2021

Temp ( °F °C ) Dew Point ( °F °C ) Humidity (%) Winds ( mph kmh ) Pressure ( in mb ) Visibility ( mi km ) Precip ( " mm )
12:15 am 00:15 Partly Cloudy with Nearby Thunderstorms 72 22.3 60 15.8 67 67 SW 7 11 29.82 1010 10 16 N/A
12:35 am 00:35 Mostly Cloudy 73 22.6 60 15.6 65 65 SW 9 15 29.83 1010 10 16 N/A
12:55 am 00:55 Partly Cloudy 72 22.4 60 15.7 66 66 SW 12 19 29.82 1010 10 16 N/A
1:15 am 01:15 Partly Cloudy 73 22.6 60 15.6 65 65 SSW 13 20 29.80 1009 10 16 N/A
1:35 am 01:35 Mostly Cloudy with Light Rain 71 21.5 62 16.5 73 73 SSW 15 24 29.77 1008 10 16 N/A
1:55 am 01:55 Mostly Cloudy with Light Rain 69 20.4 63 17.2 82 82 WSW 10 17 29.80 1009 10 16 N/A
2:15 am 02:15 Partly Cloudy 69 20.6 62 16.8 79 79 SW 8 13 29.79 1009 10 16 N/A
2:35 am 02:35 Partly Cloudy with Light Rain 69 20.7 62 16.8 78 78 SW 12 19 29.79 1009 10 16 N/A
2:55 am 02:55 Partly Cloudy 70 20.9 62 16.7 77 77 SW 10 17 29.79 1009 10 16 N/A
3:15 am 03:15 Clear 69 20.6 62 16.8 79 79 WSW 9 15 29.78 1009 10 16 N/A
3:35 am 03:35 Clear 69 20.4 63 17 81 81 SSW 9 15 29.78 1009 10 16 N/A
3:55 am 03:55 Clear 69 20.3 63 17.2 82 82 SSW 10 17 29.78 1009 10 16 N/A
4:15 am 04:15 Clear 68 19.9 64 17.5 86 86 SSW 7 11 29.78 1009 10 16 N/A
4:35 am 04:35 Clear 67 19.3 64 17.6 90 90 SW 7 11 29.79 1009 10 16 N/A
4:55 am 04:55 Partly Cloudy 66 19.1 64 17.8 92 92 SSW 6 9 29.78 1008 10 16 N/A
5:15 am 05:15 Partly Cloudy 65 18.4 64 17.8 96 96 WSW 3 6 29.78 1008 10 16 N/A
5:35 am 05:35 Partly Cloudy 65 18.2 64 17.6 96 96 SW 5 7 29.78 1008 10 16 N/A
5:55 am 05:55 Partly Cloudy 64 18 64 18 100 100 SSW 3 6 29.79 1009 10 16 N/A
6:15 am 06:15 Cloudy 66 18.7 65 18.1 96 96 SSW 6 9 29.79 1009 10 16 N/A
6:35 am 06:35 Cloudy 66 19 64 18 94 94 SSW 7 11 29.79 1009 10 16 N/A
6:55 am 06:55 Cloudy 67 19.2 64 18 93 93 SSW 6 9 29.79 1009 10 16 N/A
7:15 am 07:15 Cloudy 67 19.4 64 17.9 91 91 SW 5 7 29.80 1009 10 16 N/A
7:35 am 07:35 Cloudy 67 19.4 64 17.9 91 91 SW 5 7 29.80 1009 10 16 N/A
7:55 am 07:55 Mostly Cloudy 67 19.3 65 18.2 93 93 SW 7 11 29.80 1009 10 16 N/A
8:15 am 08:15 Mostly Cloudy 68 20.2 64 17.8 86 86 W 9 15 29.81 1010 10 16 N/A
8:35 am 08:35 Cloudy 69 20.8 64 17.9 84 84 W 7 11 29.80 1009 10 16 N/A
8:55 am 08:55 Cloudy 69 20.7 65 18.1 85 85 W 7 11 29.80 1009 10 16 N/A
9:15 am 09:15 Cloudy 70 20.9 65 18.5 86 86 W 8 13 29.80 1009 10 16 N/A
9:35 am 09:35 Cloudy 70 21.1 66 18.8 87 87 WNW 6 9 29.80 1009 10 16 N/A
9:55 am 09:55 Mostly Cloudy 71 21.7 66 19.1 85 85 W 7 11 29.80 1009 10 16 N/A
10:15 am 10:15 Partly Cloudy 72 22 66 18.9 83 83 WSW 7 11 29.80 1009 10 16 N/A
10:35 am 10:35 Partly Cloudy with Nearby Thunderstorms 72 22.4 66 19 81 81 WNW 5 7 29.80 1009 10 16 N/A
10:55 am 10:55 Partly Cloudy 73 22.9 67 19.2 80 80 W 5 7 29.81 1009 10 16 N/A
11:15 am 11:15 Partly Cloudy with Nearby Thunderstorms 74 23.5 66 19.1 76 76 W 3 6 29.81 1009 10 16 N/A
11:35 am 11:35 Partly Cloudy 75 24 66 18.9 73 73 WNW 5 7 29.81 1009 10 16 N/A
11:55 am 11:55 Partly Cloudy with Nearby Thunderstorms 77 24.9 66 19.1 70 70 NNW 7 11 29.79 1009 10 16 N/A
12:15 pm 12:15 Partly Cloudy with Nearby Thunderstorms 77 25.2 60 15.7 56 56 NW 7 11 29.79 1009 10 16 N/A
12:35 pm 12:35 Mostly Cloudy 77 25.1 61 16.2 58 58 NW 9 15 29.79 1009 10 16 N/A
12:55 pm 12:55 undefined 77 25.1 60 15.3 55 55 W 10 17 29.80 1009 10 16 N/A
1:15 pm 13:15 undefined 77 24.8 58 14.7 54 54 NW 13 20 29.80 1009 10 16 N/A
1:35 pm 13:35 Partly Cloudy with Nearby Thunderstorms 79 26.3 57 13.8 46 46 WNW 13 20 29.80 1009 10 16 N/A
1:55 pm 13:55 Partly Cloudy 80 26.6 56 13.1 43 43 NW 10 17 29.80 1009 10 16 N/A
2:15 pm 14:15 Partly Cloudy 80 26.8 55 12.5 41 41 WNW 8 13 29.80 1009 10 16 N/A
2:35 pm 14:35 Partly Cloudy 80 26.5 52 11.2 38 38 NW 10 17 29.80 1009 10 16 N/A
2:55 pm 14:55 Sunny 80 26.9 53 11.4 38 38 WNW 10 17 29.80 1009 10 16 N/A
3:15 pm 15:15 Sunny 80 26.8 53 11.7 39 39 NW 9 15 29.79 1009 10 16 N/A
3:35 pm 15:35 Sunny 80 26.6 54 12 40 40 NW 10 17 29.80 1009 10 16 N/A
3:55 pm 15:55 Sunny 80 26.4 53 11.9 41 41 WNW 8 13 29.80 1009 10 16 N/A
4:15 pm 16:15 Partly Cloudy 80 26.7 54 12.1 40 40 NNW 7 11 29.79 1009 10 16 N/A
4:35 pm 16:35 Mostly Cloudy 79 26.2 51 10.6 38 38 W 9 15 29.79 1009 10 16 N/A
4:55 pm 16:55 Partly Cloudy 78 25.7 53 11.7 42 42 WNW 8 13 29.79 1009 10 16 N/A
5:15 pm 17:15 Sunny 79 26.3 50 10.2 36 36 WNW 7 11 29.79 1009 10 16 N/A
5:35 pm 17:35 Sunny 79 26.2 51 10.4 37 37 W 10 17 29.79 1009 10 16 N/A
5:55 pm 17:55 Sunny 79 26 51 10.8 39 39 W 9 15 29.79 1009 10 16 N/A
6:15 pm 18:15 Sunny 77 25 52 11.1 42 42 WNW 6 9 29.80 1009 10 16 N/A
6:35 pm 18:35 Partly Cloudy 77 25.1 53 11.6 43 43 WSW 7 11 29.80 1009 10 16 N/A
6:55 pm 18:55 Partly Cloudy 73 22.6 57 13.9 58 58 W 6 9 29.81 1009 10 16 N/A
7:15 pm 19:15 Sunny 71 21.8 60 15.5 68 68 WNW 5 7 29.81 1009 10 16 N/A
7:35 pm 19:35 Sunny 69 20.4 62 16.8 80 80 W 5 7 29.82 1010 10 16 N/A
7:55 pm 19:55 Sunny 66 18.9 60 15.6 81 81 WNW 5 7 29.83 1010 10 16 N/A
8:15 pm 20:15 Clear 64 17.9 59 15.1 84 84 NW 3 6 29.83 1010 10 16 N/A
8:35 pm 20:35 Clear 63 17.1 60 15.4 90 90 NNE 3 6 29.84 1011 10 16 N/A
8:55 pm 20:55 Clear 65 18.2 59 15.2 83 83 N N/A 29.85 1011 10 16 N/A
9:15 pm 21:15 Clear 62 16.7 60 15.8 94 94 N N/A 29.85 1011 10 16 N/A
9:35 pm 21:35 Clear 63 17.4 60 15.5 89 89 N N/A 29.85 1011 10 16 N/A
9:55 pm 21:55 Clear 62 16.7 60 15.6 93 93 N N/A 29.86 1011 10 16 N/A
10:15 pm 22:15 Clear 61 16 59 15 94 94 N N/A 29.86 1011 10 16 N/A
10:35 pm 22:35 Clear 62 16.6 57 14.1 85 85 N N/A 29.85 1011 10 16 N/A
10:55 pm 22:55 Clear 59 14.9 58 14.7 99 99 N N/A 29.86 1011 10 16 N/A
11:15 pm 23:15 Clear 59 15 59 14.8 99 99 N N/A 29.86 1011 10 16 N/A
11:35 pm 23:35 Clear 57 14 57 14 100 100 N N/A 29.86 1011 10 16 N/A
11:55 pm 23:55 Clear 58 14.6 58 14.4 99 99 WSW 3 6 29.87 1011 10 16 N/A

Powered by AerisWeather